User: anonymous   Login
Location: Drocourt
(49.0571°N, 1.7669°E)
Time: 19:26:27
(UTC+00:00)
Language:

Vanguard 2 Rocket - Orbit

View from above orbital plane
View from above orbital plane
View from above satellite
View from above satellite

Ground track
Ground track

The orbit data is extracted from the following two-line orbital elements,

1    12U 59001B   24110.41476697  .00003019  00000-0  17719-2 0  9990
2    12  32.9088 121.0235 1656049 253.9766  87.2816 11.46157621683269
Epoch (UTC): 19 April 2024 09:57:15
Eccentricity: 0.1656049
inclination: 32.9088°
perigee height: 555 km
apogee height: 3307 km
right ascension of ascending node: 121.0235°
argument of perigee: 253.9766°
revolutions per day: 11.46157621
mean anomaly at epoch: 87.2816°
orbit number at epoch: 68326

The dashed part of the orbit path shows where the satellite is in the earth's shadow,  

DLR